Date String (YYYY-MM-DD hh:mm:ss) UTC,Instrument flags,Ambient pressure (hPa),Sample flow (lpm),Bypass flow (lpm),Sample temperature (°C),Ambient temperature (°C),ASC tube jacket temperature (°C),LED temperature (°C),Box temperature (°C),Sample RH (%),Span deviation,Mass concentration (μg/m³),Mass concentration (μg/m³),Mass concentration (μg/m³)
DateTimeUTC,F1_M11,P_M11,Q1_M11,Q2_M11,T1_M11,T2_M11,T3_M11,T4_M11,T5_M11,U1_M11,ZSPAN_M11,X0_M11,X2_M11,X1_M11
2022-03-20 15:00:00,,0819.2,4.99,0.00,23.3,22.5,00.0,32.2,25.1,10.6,0000.0,0010.09,0004.42,0002.72
2022-03-20 15:01:00,,0819.2,5.01,0.00,23.4,22.5,00.0,32.2,25.2,10.5,0000.0,0010.06,0004.39,0002.72
2022-03-20 15:02:00,,0819.2,5.00,0.00,23.4,22.5,00.0,32.2,25.2,10.6,0000.0,0009.91,0004.31,0002.69
2022-03-20 15:03:00,,0819.3,4.99,0.00,23.4,22.6,00.0,32.3,25.2,10.3,0000.0,0010.14,0004.25,0002.71
2022-03-20 15:04:00,,0819.4,4.99,0.00,23.4,22.6,00.0,32.3,25.2,10.3,0000.0,0010.50,0004.30,0002.71
2022-03-20 15:05:00,,0819.4,5.01,0.00,23.4,22.6,00.0,32.3,25.3,10.2,0000.0,0010.25,0004.33,0002.71
2022-03-20 15:06:00,,0819.3,5.00,0.00,23.4,22.6,00.0,32.3,25.2,10.5,0000.0,0010.80,0004.33,0002.73
2022-03-20 15:07:00,,0819.2,4.99,0.00,23.4,22.6,00.0,32.3,25.2,10.9,0000.0,0010.89,0004.34,0002.75
2022-03-20 15:08:00,,0819.3,5.01,0.00,23.4,22.6,00.0,32.3,25.2,11.0,0000.0,0011.71,0004.42,0002.77
2022-03-20 15:09:00,,0819.3,4.98,0.00,23.4,22.6,00.0,32.3,25.2,10.8,0000.0,0011.78,0004.44,0002.77
2022-03-20 15:10:00,,0819.2,5.00,0.00,23.4,22.6,00.0,32.3,25.2,10.9,0000.0,0012.25,0004.48,0002.80
2022-03-20 15:11:00,,0819.3,5.00,0.00,23.5,22.6,00.0,32.4,25.3,11.1,0000.0,0012.89,0004.55,0002.83
2022-03-20 15:12:00,,0819.2,5.01,0.00,23.5,22.7,00.0,32.4,25.3,11.1,0000.0,0012.79,0004.58,0002.83
2022-03-20 15:13:00,,0819.3,5.00,0.00,23.5,22.7,00.0,32.4,25.3,10.9,0000.0,0012.94,0004.63,0002.84
2022-03-20 15:14:00,,0819.2,4.99,0.00,23.5,22.7,00.0,32.4,25.3,10.9,0000.0,0013.06,0004.66,0002.83
2022-03-20 15:15:00,,0819.3,5.01,0.00,23.5,22.7,00.0,32.4,25.3,10.9,0000.0,0013.32,0004.66,0002.83
2022-03-20 15:16:00,,0819.2,4.99,0.00,23.5,22.7,00.0,32.4,25.4,11.0,0000.0,0013.66,0004.59,0002.82
2022-03-20 15:17:00,,0819.2,4.99,0.00,23.6,22.7,00.0,32.4,25.4,11.7,0000.0,0013.13,0004.58,0002.80
2022-03-20 15:18:00,,0819.3,5.02,0.00,23.6,22.7,00.0,32.4,25.4,11.5,0000.0,0013.21,0004.62,0002.79
2022-03-20 15:19:00,,0819.2,4.99,0.00,23.6,22.8,00.0,32.5,25.4,11.2,0000.0,0012.62,0004.62,0002.78
2022-03-20 15:20:00,,0819.2,5.00,0.00,23.6,22.8,00.0,32.5,25.4,10.8,0000.0,0012.57,0004.61,0002.77
2022-03-20 15:21:00,,0819.2,4.99,0.00,23.6,22.8,00.0,32.5,25.4,10.7,0000.0,0012.39,0004.64,0002.77
2022-03-20 15:22:00,,0819.3,5.01,0.00,23.6,22.8,00.0,32.5,25.4,10.7,0000.0,0011.60,0004.57,0002.77
2022-03-20 15:23:00,,0819.3,4.99,0.00,23.6,22.7,00.0,32.5,25.4,10.9,0000.0,0011.89,0004.53,0002.78
2022-03-20 15:24:00,,0819.2,4.99,0.00,23.6,22.7,00.0,32.5,25.4,10.5,0000.0,0011.87,0004.53,0002.80
2022-03-20 15:25:00,,0819.3,4.99,0.00,23.6,22.7,00.0,32.5,25.4,10.8,0000.0,0011.41,0004.51,0002.81
2022-03-20 15:26:00,,0819.3,5.02,0.00,23.6,22.7,00.0,32.5,25.4,10.7,0000.0,0011.02,0004.50,0002.81
2022-03-20 15:27:00,,0819.3,4.99,0.00,23.6,22.8,00.0,32.5,25.4,10.8,0000.0,0010.61,0004.53,0002.82
2022-03-20 15:28:00,,0819.2,5.00,0.00,23.6,22.8,00.0,32.5,25.4,10.3,0000.0,0011.05,0004.59,0002.85
2022-03-20 15:29:00,,0819.2,5.02,0.00,23.6,22.8,00.0,32.5,25.4,10.0,0000.0,0011.05,0004.54,0002.88
2022-03-20 15:30:00,,0819.2,4.99,0.00,23.6,22.8,00.0,32.5,25.4,10.4,0000.0,0012.12,0004.53,0002.88
2022-03-20 15:31:00,,0819.2,4.99,0.00,23.6,22.8,00.0,32.5,25.4,11.0,0000.0,0012.35,0004.52,0002.90
2022-03-20 15:32:00,,0819.2,5.01,0.00,23.6,22.8,00.0,32.5,25.5,11.1,0000.0,0012.39,0004.51,0002.90
2022-03-20 15:33:00,,0819.2,4.99,0.00,23.6,22.8,00.0,32.5,25.5,12.0,0000.0,0012.48,0004.53,0002.91
2022-03-20 15:34:00,,0819.2,5.00,0.00,23.6,22.8,00.0,32.6,25.4,11.8,0000.0,0012.39,0004.53,0002.93
2022-03-20 15:35:00,,0819.1,5.00,0.00,23.6,22.8,00.0,32.6,25.5,11.9,0000.0,0012.31,0004.46,0002.92
2022-03-20 15:36:00,,0819.2,4.97,0.00,23.6,22.8,00.0,32.6,25.5,12.1,0000.0,0012.24,0004.44,0002.92
2022-03-20 15:37:00,,0819.2,5.01,0.00,23.7,22.8,00.0,32.6,25.5,12.0,0000.0,0012.31,0004.49,0002.96
2022-03-20 15:38:00,,0819.2,5.00,0.00,23.7,22.9,00.0,32.6,25.5,11.3,0000.0,0012.37,0004.57,0002.97
2022-03-20 15:39:00,,0819.2,4.99,0.00,23.7,22.9,00.0,32.6,25.5,11.5,0000.0,0012.09,0004.59,0002.98
2022-03-20 15:40:00,,0819.1,5.02,0.00,23.7,22.9,00.0,32.6,25.5,11.2,0000.0,0012.10,0004.62,0002.98
2022-03-20 15:41:00,,0819.2,4.99,0.00,23.7,22.9,00.0,32.6,25.5,11.2,0000.0,0011.69,0004.69,0003.00
2022-03-20 15:42:00,,0819.2,5.00,0.00,23.7,22.9,00.0,32.6,25.5,12.0,0000.0,0011.76,0004.77,0003.02
2022-03-20 15:43:00,,0819.1,5.01,0.00,23.8,22.9,00.0,32.6,25.6,12.1,0000.0,0012.28,0004.74,0003.03
2022-03-20 15:44:00,,0819.1,4.99,0.00,23.8,23.0,00.0,32.6,25.6,11.9,0000.0,0012.55,0004.77,0003.04
2022-03-20 15:45:00,,0819.1,5.00,0.00,23.8,23.0,00.0,32.6,25.6,11.9,0000.0,0012.57,0004.84,0003.06
2022-03-20 15:46:00,,0819.1,5.00,0.00,23.8,23.0,00.0,32.7,25.6,11.8,0000.0,0012.55,0004.89,0003.07
2022-03-20 15:47:00,,0819.2,4.99,0.00,23.8,23.0,00.0,32.7,25.6,12.0,0000.0,0012.62,0004.94,0003.09
2022-03-20 15:48:00,,0819.3,5.01,0.00,23.8,23.0,00.0,32.7,25.7,12.2,0000.0,0012.59,0004.94,0003.11
2022-03-20 15:49:00,,0819.2,4.99,0.00,23.9,23.1,00.0,32.7,25.6,11.8,0000.0,0012.54,0004.92,0003.11
2022-03-20 15:50:00,,0819.2,5.00,0.00,23.9,23.1,00.0,32.7,25.7,11.8,0000.0,0012.63,0004.90,0003.11
2022-03-20 15:51:00,,0819.2,5.02,0.00,23.9,23.1,00.0,32.7,25.7,11.9,0000.0,0012.51,0004.90,0003.12
2022-03-20 15:52:00,,0819.2,4.99,0.00,23.9,23.1,00.0,32.8,25.8,11.7,0000.0,0012.54,0004.87,0003.13
2022-03-20 15:53:00,,0819.1,5.00,0.00,23.9,23.2,00.0,32.8,25.8,11.8,0000.0,0012.74,0004.78,0003.15
2022-03-20 15:54:00,,0819.1,4.99,0.00,24.0,23.2,00.0,32.8,25.9,11.5,0000.0,0012.85,0004.80,0003.16
2022-03-20 15:55:00,,0819.1,5.00,0.00,24.0,23.2,00.0,32.8,25.9,11.5,0000.0,0012.60,0004.77,0003.17
2022-03-20 15:56:00,,0819.1,4.99,0.00,24.0,23.2,00.0,32.8,25.9,11.4,0000.0,0012.99,0004.80,0003.18
2022-03-20 15:57:00,,0819.1,5.02,0.00,24.0,23.2,00.0,32.9,25.9,11.5,0000.0,0013.31,0004.84,0003.19
2022-03-20 15:58:00,,0819.1,4.99,0.00,24.0,23.2,00.0,32.9,25.9,11.6,0000.0,0013.44,0004.86,0003.19
2022-03-20 15:59:00,,0819.2,5.01,0.00,24.1,23.2,00.0,32.9,25.9,11.3,0000.0,0013.32,0004.82,0003.18
